TimeCST,TemperatureF,Dew PointF,Humidity,Sea Level PressureIn,VisibilityMPH,Wind Direction,Wind SpeedMPH,Gust SpeedMPH,PrecipitationIn,Events,Conditions,WindDirDegrees,DateUTC
12:26 AM,-0.4,-5.8,78,30.16,2.5,Calm,Calm,-,0.00,Snow,Light Snow,0,2013-02-16 06:26:00
12:37 AM,-2.2,-5.8,85,30.16,5.0,Calm,Calm,-,0.00,Snow,Light Snow,0,2013-02-16 06:37:00
12:53 AM,-2.9,-7.1,82,30.25,10.0,Calm,Calm,-,0.00,,Overcast,0,2013-02-16 06:53:00
1:17 AM,-2.2,-9.4,71,30.15,10.0,Calm,Calm,-,N/A,,Scattered Clouds,0,2013-02-16 07:17:00
1:53 AM,-6.0,-11.0,79,30.24,10.0,Calm,Calm,-,N/A,,Clear,0,2013-02-16 07:53:00
2:53 AM,-7.1,-13.0,75,30.24,9.0,Calm,Calm,-,N/A,,Mostly Cloudy,0,2013-02-16 08:53:00
3:53 AM,-8.0,-14.1,75,30.23,10.0,Calm,Calm,-,N/A,,Overcast,0,2013-02-16 09:53:00
4:53 AM,-9.9,-16.1,74,30.23,10.0,Calm,Calm,-,N/A,,Overcast,0,2013-02-16 10:53:00
5:53 AM,-11.9,-18.0,74,30.24,10.0,Calm,Calm,-,N/A,,Overcast,0,2013-02-16 11:53:00
6:53 AM,-13.0,-18.9,75,30.25,10.0,Calm,Calm,-,N/A,,Mostly Cloudy,0,2013-02-16 12:53:00
7:53 AM,-11.9,-18.0,74,30.25,10.0,Calm,Calm,-,N/A,,Mostly Cloudy,0,2013-02-16 13:53:00
8:53 AM,-6.0,-9.9,83,30.25,10.0,Calm,Calm,-,N/A,,Partly Cloudy,0,2013-02-16 14:53:00
9:53 AM,3.9,-0.0,84,30.24,10.0,Calm,Calm,-,N/A,,Partly Cloudy,0,2013-02-16 15:53:00
10:53 AM,12.0,-2.0,53,30.23,10.0,NE,6.9,-,N/A,,Scattered Clouds,40,2013-02-16 16:53:00
11:53 AM,12.0,-4.0,49,30.22,10.0,Calm,Calm,-,N/A,,Mostly Cloudy,0,2013-02-16 17:53:00
12:53 PM,14.0,-4.0,45,30.21,10.0,Calm,Calm,-,N/A,,Partly Cloudy,0,2013-02-16 18:53:00
1:53 PM,15.1,-5.1,41,30.21,10.0,Calm,Calm,-,N/A,,Clear,0,2013-02-16 19:53:00
2:53 PM,16.0,-5.1,39,30.19,10.0,Calm,Calm,-,N/A,,Clear,0,2013-02-16 20:53:00
3:53 PM,16.0,-4.0,41,30.21,10.0,ENE,4.6,-,N/A,,Clear,70,2013-02-16 21:53:00
4:53 PM,16.0,-6.0,38,30.21,10.0,Calm,Calm,-,N/A,,Clear,0,2013-02-16 22:53:00
5:53 PM,8.1,-6.0,53,30.22,10.0,Calm,Calm,-,N/A,,Clear,0,2013-02-16 23:53:00
6:53 PM,1.0,-8.0,66,30.24,10.0,Calm,Calm,-,N/A,,Clear,0,2013-02-17 00:53:00
7:53 PM,-4.0,-9.9,76,30.25,10.0,Calm,Calm,-,N/A,,Clear,0,2013-02-17 01:53:00
8:53 PM,-7.1,-13.0,75,30.24,10.0,Calm,Calm,-,N/A,,Clear,0,2013-02-17 02:53:00
9:53 PM,-9.9,-15.0,78,30.23,10.0,Calm,Calm,-,N/A,,Clear,0,2013-02-17 03:53:00
10:53 PM,-11.9,-18.0,74,30.21,10.0,Calm,Calm,-,N/A,,Clear,0,2013-02-17 04:53:00
11:53 PM,-13.0,-18.9,75,30.22,10.0,Calm,Calm,-,N/A,,Clear,0,2013-02-17 05:53:00